Regional Weather Roundup
Issued by NWS

Home | Current Version | Previous Version | Text Only | Print | Product List | Glossary On
Versions: 1 2 3 4 5 6 7 8 9 10 11 12 13 14 15 16 17 18 19 20 21 22 23 24 25 26 27 28 29 30 31 32 33 34 35 36 37 38 39 40 41 42 43 44 45 46 47 48 49 50
000
ASUS43 KLSX 281710
RWRMO

WEATHER SUMMARY FOR MISSOURI
NATIONAL WEATHER SERVICE SPRINGFIELD MO
1200 PM CDT FRI JUL 28 2017

NOTE: "FAIR" INDICATES FEW OR NO CLOUDS BELOW 12,000 FEET WITH NO
       SIGNIFICANT WEATHER AND/OR OBSTRUCTIONS TO VISIBILITY.
       CURRENT SKY AND/OR WEATHER CONDITIONS ARE NOT AVAILABLE FOR
       CHILLICOTHE AND FARMINGTON.

MOZ001>031-035>038-043-044-053-054-281800-
...NORTHERN AND WESTERN MISSOURI...

CITY           SKY/WX    TMP DP  RH WIND       PRES   REMARKS
KANSAS CTY INT PTSUNNY   81  63  54 NE14      30.03S
KANSAS C DTWN  MOSUNNY   81  66  60 E13       30.00
LEE`S SUMMIT   SUNNY     80  68  66 NE14      30.02S
ST JOSEPH      MOSUNNY   83  66  56 E9        30.02F
CHILLICOTHE      N/A     81  67  62 VRB7      30.03F
KIRKSVILLE     MOSUNNY   82  57  42 NE17      30.03F

$$
MOZ066>068-077>081-088>096-101>105-281800-
...SOUTHWEST MISSOURI...

CITY           SKY/WX    TMP DP  RH WIND       PRES   REMARKS
SPRINGFIELD    MOSUNNY   86  72  62 NE14      29.95F HX  92
JOPLIN         MOSUNNY   86  75  69 NE10      29.96S HX  95
BRANSON        PTSUNNY   82  73  74 NE6       29.96F

$$
MOZ032>034-039>042-045>050-055>058-069>072-281800-
...CENTRAL MISSOURI...

CITY           SKY/WX    TMP DP  RH WIND       PRES   REMARKS
COLUMBIA       SUNNY     81  62  52 N12       29.99S
JEFFERSON CITY MOSUNNY   83  61  47 N9        29.96F
ROLLA          SUNNY     82  63  52 N9        29.98S
SEDALIA        SUNNY     82  63  52 NE15      30.01S
WHITEMAN AFB   MOSUNNY   80  66  62 NE12      29.99S
WARRENSBURG    MOSUNNY   79  64  61 N13       30.01R
OSAGE BEACH    MOSUNNY   83  71  67 NE10      29.97S

$$
MOZ051-052-059>065-281800-
...EAST CENTRAL MISSOURI...

CITY           SKY/WX    TMP DP  RH WIND       PRES   REMARKS
ST LOUIS INTL  MOSUNNY   84  67  56 N14       29.94S
SPIRIT OF STL  MOSUNNY   83  66  56 N13G20    29.93S
ST CHARLES     SUNNY     83  69  62 N14G20    29.93S

$$
MOZ072>076-082>087-097>100-106>115-281800-
...SOUTH CENTRAL AND SOUTHEAST MISSOURI...

CITY           SKY/WX    TMP DP  RH WIND       PRES   REMARKS
CAPE GIRARDEAU MOSUNNY   87  72  60 NE10      29.86S HX  93
FARMINGTON     MOSUNNY   84  68  58 N12G20    29.92F
POPLAR BLUFF   PTSUNNY   86  74  67 NE12      29.85F HX  94
WEST PLAINS    MOSUNNY   86  70  58 N8G20     29.94F HX  90

$$




USA.gov is the U.S. government's official web portal to all federal, state and local government web resources and services.